Helicity
190 195 191 173 157 127 98 81 77 72 73 87 95 100 103 96 92 87 90 87 100 121
224 238 226 213 186 152 129 118 119 110 108 109 110 107 105 99 93 93 92 91 99 128
244 249 237 218 196 173 158 147 139 124 119 110 110 118 113 109 102 99 106 103 125 141
257 251 237 221 203 184 164 155 134 122 120 117 131 128 124 115 98 105 112 123 140 161
255 242 239 230 211 178 172 150 134 122 120 133 138 127 121 111 103 114 136 154 167 155
244 239 238 231 205 192 175 142 126 128 144 146 138 121 112 105 115 132 157 158 155 153
228 233 233 226 211 191 156 131 139 154 150 140 120 103 92 112 132 153 152 156 169 167
233 237 241 232 201 170 140 143 153 161 148 125 102 88 110 127 140 149 171 181 182 185
240 243 230 206 179 155 165 168 169 155 121 103 97 106 131 145 162 174 181 189 216 236
228 218 201 182 174 172 168 166 152 123 104 106 114 117 144 163 171 175 176 198 215 202
201 200 188 174 162 158 158 159 132 112 102 103 108 134 159 158 167 166 177 194 181 173
195 181 158 156 165 160 153 132 112 99 93 113 115 119 135 147 158 150 150 148 146 136
156 149 155 166 174 137 118 95 95 101 112 100 121 95 109 130 142 147 156 153 160 82
151 158 156 155 132 110 101 96 101 100 111 105 98 106 75 100 151 161 157 169 156 131
Wind_Speed
12 17 23 27 31 35 38 42 47 52 57 62 66 69 71 73 75 75 78 78 78 78
15 20 25 29 32 37 40 45 51 56 62 66 69 72 75 79 80 79 77 79 77 78
17 22 26 30 35 39 43 49 55 60 65 69 73 77 78 81 80 79 78 78 80 84
19 24 28 33 38 42 47 53 58 64 68 74 78 80 81 81 79 79 81 82 84 89
21 26 31 37 41 45 51 56 62 67 72 78 80 81 82 82 79 83 86 87 88 90
24 29 34 40 45 50 55 60 65 70 77 80 81 82 80 78 81 85 87 87 86 92
27 33 38 43 47 53 58 63 69 74 77 80 81 80 79 82 86 88 86 85 86 91
31 36 40 45 50 55 60 66 71 75 79 80 81 80 86 87 88 90 92 89 87 88
33 38 43 48 54 59 65 68 73 77 80 81 82 86 89 92 93 94 96 100 95 91
35 40 46 52 58 62 65 70 75 78 79 83 85 88 92 96 95 97 99 100 100 98
36 43 49 53 56 61 66 72 75 78 80 83 85 90 94 98 93 96 98 96 94 92
38 43 48 54 59 63 68 72 74 77 82 86 88 90 95 96 94 96 96 90 87 86
39 45 51 55 61 64 67 71 75 81 83 85 88 88 91 92 95 99 96 90 84 85
43 48 52 56 60 65 70 75 81 84 85 84 83 85 88 92 93 94 95 91 87 83
Wind_Direction
12 2 357 354 354 353 352 351 350 349 348 347 345 344 342 341 339 338 336 335 334 333
357 354 352 354 354 350 349 348 347 346 344 343 342 342 340 338 337 337 337 335 335 334
351 352 353 352 349 348 347 344 343 342 342 341 340 339 339 338 338 337 337 336 334 332
349 351 349 347 346 345 343 342 341 340 340 338 338 339 338 338 338 337 336 335 333 332
347 346 344 344 343 342 341 341 340 339 338 337 338 338 338 337 338 337 335 334 333 332
340 340 340 340 340 340 340 338 338 337 337 338 338 338 338 338 337 336 335 334 333 332
335 335 337 339 339 339 338 337 337 338 339 339 339 339 339 337 336 336 335 334 333 332
331 334 337 338 337 338 338 338 338 339 339 340 340 340 338 337 337 336 335 334 333 332
332 335 335 336 336 336 336 339 339 340 340 340 340 339 339 338 337 336 334 332 332 332
332 333 334 334 334 337 339 339 340 340 340 340 340 340 339 339 338 337 336 334 333 333
333 333 334 336 338 338 339 340 340 340 341 341 341 341 340 340 340 338 337 337 336 336
336 337 338 338 338 339 339 340 341 342 341 341 341 342 341 341 341 339 339 340 339 339
340 339 338 339 339 341 341 341 342 341 342 342 342 343 343 343 341 339 340 340 340 339
341 340 341 341 342 342 342 342 341 342 343 344 345 344 344 343 342 341 340 340 341 341